Showing default

JACKAL-02, 59134

Orbit data source: Space-Track

JACKAL-02, 59134 is a payload satellite owned by True Anomaly (US) in SSO that was launched on Mon, 04 Mar 2024 UTC via an FALCON 9 launch vehicle from the Air Force Western Test Range (AFWTR). Payload-class satellites include a variety of spacecraft equipped with specific instruments for various scientific and technological missions. These include communications satellites like Starlink; space stations such as the ISS; scientific satellites like the Hubble; Earth observation satellites from companies like Planet Labs, Umbra, and HawkEye 360; GPS; miniature CubeSats for education and research; and military/defense satellites.

Loading next visibility...
Identifier
59134, 2024-043AN
Orbit
SSO
Country
Flag of USUS
Related business
Manufacturer
True Anomaly
Mission
Operational Commercial Technology
Bus & Motor
JACKAL, Unknown motor
Mass
275 kg wet, 275 kg dry
Launch date (UTC)
2024-03-04 (2 years ago)
Launch vehicle
FALCON 9
Launch site
Air Force Western Test Range (AFWTR)
Object type
Payload
Rocket body
Debris
Shape & HBR
Box + 2 Pan, 3.0 m
Radar Cross Section
1.240 m², Large (>1 m²)

Expand to show TLE details & history
Last TLE update: 9 hours ago

TLE from 9 hours ago
0 JACKAL-02
1 59134U 24043AN  25300.27982124  .00016966  00000-0  47343-3 0  9992
2 59134  97.5306  73.5144 0008379 330.8830  29.1945 15.36779368 91735
Epoch: 2025-10-27T06:42Z
TLE epoch observation values (Epoch: 2025-10-27T06:42:56.555Z)
Latitude
-0.00006°
Longitude
-63.10517°
Altitude
453.751 km
Speed
7.643 km/s
True Right ascension
04h 54m 03s
True Declination
0° 00' 00"
Sunlit
Object was in full shadow at epoch
Visualization orbit readout
Latitude
Unknown
Longitude
Unknown
Altitude
Unknown
Speed
Unknown
Apparent Right ascension
Unknown
Apparent Declination
Unknown
Sunlit
N/A
Visualization observer readout
Local Sidereal Time
11:03:34
Azimuth
Unknown
Elevation
Unknown
Doppler factor
Unknown
Orbital elements
Apogee altitude
458.313 km
Perigee altitude
446.866 km
Semi-major axis
6,830.726 km
Eccentricity
0.00084
Inclination
97.5306°
RAAN
73.5144°
Arg. of periapsis
330.883°
True anomaly
29.24138°
Mean anomaly
29.1945°
Eccentric anomaly
29.21793°
Mean motion
3.84453 °/min
Orbital period
93.64 mins
BSTAR
0.00047343
Loading maneuver chart data...
Computing Atmospheric mass density...
Loading historical data...
Loading historical data...
Loading historical data...
Loading historical data...
Loading historical data...
Loading historical data...
Loading historical data...

Documentation

Showing up to 5 results
|